Location: Clyde
(45.1830°S, 169.3170°E)
Time: 13:46:27
(UTC+12:00)

Daily predictions for brighter satellites

Satellite Brightness Start Highest point End
(mag) Time Altitude Azimuth Time Altitude Azimuth Time Altitude Azimuth
Atlas Centaur 2 4.4 17:46:40 10° NW 17:49:29 15° N 17:52:39 10° NE
Cosmos 2322 4.2 17:43:48 10° NW 17:49:30 64° WSW 17:55:16 10° SSE
In-Cosmos 22 Rocket 4.2 17:45:49 10° N 17:51:10 90° ENE 17:56:36 10° S
CZ-4B R/B 1.9 17:49:02 10° NE 17:51:49 31° ESE 17:54:41 10° S
Cosmos 1992 Rocket 4.3 17:47:13 10° NNW 17:52:28 75° WSW 17:57:48 10° SSE
Meteor PRIRODA 4.3 17:51:10 10° SSE 17:54:42 36° E 17:58:11 10° NNE
Cosmos 1437 Rocket 3.7 17:54:30 10° SSE 17:57:47 26° ESE 18:01:02 10° NE
Cosmos 1242 Rocket 4.3 18:00:45 10° SSE 18:02:58 15° ESE 18:05:10 10° ENE
ERS-2 4.0 18:01:45 10° E 18:03:28 13° ESE 18:05:13 10° SSE
Genesis I 3.2 18:00:18 10° NNW 18:04:15 73° ENE 18:08:10 10° SE
Cosmos 1356 3.6 18:01:15 10° N 18:04:34 48° E 18:07:56 10° SSE
deb Chang Zheng 4 4.4 18:01:07 10° SE 18:05:01 30° E 18:08:52 10° NNE
Meteor 2-15 4.5 17:59:15 10° S 18:05:21 62° ESE 18:11:23 10° NNE
IRIDIUM 103 4.4 18:01:24 10° S 18:06:41 62° E 18:11:52 10° NNE
Envisat 3.1 18:01:54 10° SSE 18:07:02 61° E 18:12:05 10° N
ATLAS 3B R/B 3.0 17:59:56 10° NNW 18:07:24 72° ENE 18:14:45 10° SE
Cosmos 2333 Rocket 3.1 18:02:10 10° NW 18:07:40 49° WSW 18:13:13 10° SSE
Cosmos 2058 2.9 18:04:49 10° N 18:08:55 67° E 18:13:08 10° SSE
SKYMED 2 4.2 18:07:35 10° N 18:11:55 63° W 18:16:20 10° SSW
SJ 16-02 2.4 18:08:34 10° S 18:12:14 24° ESE 18:15:52 10° ENE
H-2A R/B 2.7 18:08:22 10° SSE 18:12:18 87° ENE 18:16:06 10° NNW
SMAP 4.2 18:09:33 10° SE 18:13:22 24° E 18:17:08 10° NNE
Cosmos 2237 Rocket 2.4 18:08:27 10° N 18:13:58 55° ENE 18:19:35 10° SSE
Cosmos 1943 Rocket 3.4 18:13:58 10° S 18:18:15 21° SE 18:21:52 12° E
Cosmos 1553 Rocket 4.3 18:15:14 10° S 18:21:04 42° ESE 18:26:47 10° NE
Cosmos 1867 4.4 18:17:51 10° SSW 18:22:38 31° SE 18:26:56 12° E
ADEOS 4.2 18:17:38 10° S 18:22:51 59° WSW 18:28:00 10° NNW
Cosmos 1689 Rocket 3.2 18:22:14 10° ENE 18:24:35 22° ESE 18:26:57 10° SSE
IRIDIUM 106 4.4 18:19:41 10° S 18:25:02 89° E 18:30:18 10° N
SL-8 R/B 3.7 18:20:31 10° WNW 18:25:24 85° NNE 18:29:12 17° ESE
Cosmos 2195 Rocket 4.5 18:20:04 10° N 18:26:16 84° E 18:32:31 10° S
CSL-04 DEB 4.2 18:23:18 10° NNE 18:27:15 77° ESE 18:31:18 10° SSW
NOSS 0 Rocket 4.0 18:22:30 10° NNW 18:28:46 90° ENE 18:35:04 10° SSE
Cosmos 192 4.4 18:23:50 10° NNW 18:28:46 83° WSW 18:33:47 10° SSE
Meteor 2-19 Rocket 4.5 18:27:04 10° N 18:33:11 90° E 18:39:22 10° S
Okean O Rocket 3.0 18:34:14 19° E 18:34:47 19° E 18:37:59 10° NE
PSLV R/B 4.1 18:32:26 10° SSE 18:36:05 41° E 18:39:38 10° N
Lacrosse 5 1.9 18:32:29 10° SW 18:37:37 67° SE 18:42:25 12° ENE
Cosmos 2278 Rocket 2.6 18:32:13 10° SSW 18:37:56 71° WNW 18:43:36 10° NNE
Cosmos 2369 Rocket 3.6 18:37:17 10° S 18:41:06 18° SE 18:41:49 18° SE
Cosmos 1777 Rocket 4.0 18:36:34 10° SSW 18:41:55 87° WNW 18:47:11 10° NNE
Cosmos 1933 4.0 18:41:11 10° S 18:44:59 33° ESE 18:48:44 10° NE
Cosmos 2219 Rocket 3.9 18:42:13 10° WNW 18:47:08 30° SW 18:52:05 10° S
CZ-4B R/B 3.8 18:44:38 14° SE 18:48:32 31° E 18:53:13 10° NNE
Cosmos 1825 4.0 18:46:54 10° NW 18:50:21 32° WSW 18:53:50 10° S
CZ-2C R/B 3.0 18:46:46 10° N 18:52:24 75° WNW 18:58:03 10° SSW
COSMOS 2428 4.3 18:49:10 10° WNW 18:54:16 32° SW 18:59:25 10° S
NOAA 11 4.1 18:50:26 10° SSE 18:55:58 69° ENE 19:01:26 10° N
Cosmos 1898 Rocket 4.2 18:55:44 10° S 19:00:21 30° ESE 19:00:48 29° ESE
CZ-4B R/B 4.4 18:57:37 10° S 19:01:47 39° WSW 19:05:47 10° NW
Meteor 2-3 Rocket 3.9 18:57:34 10° NNE 19:02:59 51° E 19:08:32 10° SSE
Cosmos 1655 Rocket 4.1 18:57:45 10° NNE 19:03:51 53° E 19:10:06 10° SSE
PAYLOAD B 4.2 18:58:57 10° SSE 19:04:34 61° ENE 19:10:05 10° N
Cosmos 1461 3.4 19:00:18 10° SW 19:04:37 66° WNW 19:09:04 10° NNE
Cosmos 2221 4.4 19:02:44 10° SSW 19:06:36 32° W 19:10:24 10° NNW
ATLAS CENTAUR R/B 1.3 19:14:10 10° SSW 19:18:26 58° SE 19:18:32 58° ESE
Cosmos 1939 Rocket 2.8 19:17:52 35° SSE 19:19:32 72° E 19:23:43 10° N
Cosmos 1633 3.3 19:16:58 10° NNW 19:20:28 51° W 19:23:34 13° S
BREEZE-M DEB (TANK) 4.1 19:20:21 10° WSW 19:21:21 19° SW 19:21:21 19° SW
Cosmos 1606 4.5 19:19:27 10° SSW 19:22:57 33° W 19:26:23 10° NNW
CENTAUR R/B 4.5 19:19:45 10° WSW 19:24:40 19° SSW 19:28:40 11° SSE
Cosmos 883 Rocket 4.5 19:18:32 10° S 19:24:42 56° ESE 19:30:50 10° NNE
CZ-2C R/B 2.7 19:25:08 37° SSE 19:26:56 66° E 19:31:41 10° N
Meteor 2-21 4.4 19:20:55 10° N 19:27:10 89° W 19:33:29 10° S
USA 234 3.3 19:24:15 30° SE 19:27:54 82° SW 19:34:30 10° WNW
AQUARIUS 4.3 19:24:24 11° S 19:28:48 74° WSW 19:33:18 10° NNW
SL-16 R/B 2.1 19:23:51 10° NNW 19:29:31 78° ENE 19:32:00 35° SSE
Radarsat Rocket 3.8 19:23:42 10° SSE 19:29:53 87° ENE 19:35:44 10° NNW
Cosmos 2151 3.5 19:26:00 10° NNW 19:30:10 58° W 19:34:18 11° S
BREEZE-M DEB 4.3 19:32:29 10° W 19:33:43 22° WSW 19:33:43 22° WSW
ERS-2 2.8 19:32:54 10° N 19:36:31 55° WNW 19:40:12 10° SSW
FengYun 1-2 T 4.4 19:32:19 10° S 19:37:54 74° WSW 19:43:23 10° NNW
Cosmos 1242 Rocket 3.9 19:34:28 10° SSW 19:38:00 41° W 19:41:30 10° NNW
Cosmos 2266 Rocket 3.8 19:36:08 10° N 19:42:14 86° E 19:48:29 10° S
Cosmos 2297 3.7 19:37:23 10° SSW 19:43:13 83° WNW 19:46:43 25° NNE
SMAP 4.3 19:46:25 10° S 19:50:51 41° WSW 19:55:14 10° NW
SJ 16-02 2.8 19:46:47 10° SW 19:50:55 37° WNW 19:55:00 10° N
Cosmos 1937 Rocket 4.4 19:49:23 10° SSW 19:52:35 35° S 19:52:35 35° S
H-2A R/B 4.3 19:58:12 22° NNW 19:58:12 22° NNW 19:59:40 10° NNW
Cosmos 2237 Rocket 4.0 19:53:33 10° WNW 19:58:23 28° SW 20:02:48 12° S
ATLAS 3B R/B 4.1 19:51:57 10° W 19:58:44 36° SW 20:03:08 20° SSE
Cosmos 1943 Rocket 2.2 19:56:56 10° SSW 20:02:40 78° WNW 20:03:28 65° N
Cosmos 1607 4.2 19:59:06 10° SW 20:05:12 66° WNW 20:07:10 44° N
Cosmos 1867 4.1 20:01:15 10° SW 20:06:30 54° WNW 20:07:40 45° NNW
Cosmos 1763 Rocket 3.7 20:03:51 10° NNW 20:08:35 68° WNW 20:08:35 68° WNW
Cosmos 2315 Rocket 4.0 20:04:00 10° S 20:10:24 81° W 20:16:45 10° N
Okean O Rocket 2.6 20:11:42 46° W 20:11:42 46° W 20:15:40 10° NW
Lacrosse 5 3.7 20:16:02 10° WSW 20:20:15 26° NW 20:21:41 23° NNW
Cosmos 2369 Rocket 3.2 20:20:16 10° SSW 20:23:38 37° SSW 20:23:38 37° SSW
CZ-4B R/B 4.4 20:26:32 24° SSW 20:29:08 38° WSW 20:34:01 10° NW
NOSS 3-1 (C) 4.3 20:35:18 10° NNW 20:42:39 63° NNW 20:42:39 63° NNW
USA 234 4.4 21:11:37 36° SW 21:11:37 36° SW 21:16:27 10° W
SL-16 R/B 4.4 21:10:03 10° W 21:13:56 21° SW 21:13:56 21° SW
